THORAD DELTA 1 DEB, 42605

Orbit data source: Space-Track

THORAD DELTA 1 DEB, 42605 is space debris in SSO originally from a launch on Fri, 15 Nov 1974 UTC launched from the Air Force Western Test Range (AFWTR). Debris objects in space refer to the collection of defunct objects orbiting the Earth. Examples of debris include non-operational satellites, rocket bodies, and fragments generated from explosions, collisions, or faulty payload assembly.

Loading next visibility...
Identifier
42605, 1974-089FW
Orbit
SSO
Country
Flag of USUS
Related business
Manufacturer
Unknown
Mission
Spacecraft
Bus & Motor
Unknown
Mass
Unknown
Launch date (UTC)
1974-11-15 (51 years ago)
Launch vehicle
Unknown
Launch site
Air Force Western Test Range (AFWTR)
Object type
Payload
Rocket body
Debris
Shape & HBR
Unknown shape, 0.1 m
Radar Cross Section
Small (<0.1 m²)

Expand to show TLE details & history
Last TLE update: 1 week ago

TLE from 1 week ago
0 THORAD DELTA 1 DEB
1 42605U 74089FW  25278.11325348  .00000039  00000-0  66533-3 0  9994
2 42605 101.4680 237.1866 0126628 327.5853  31.7475 12.29166317425309
Epoch: 2025-10-05T02:43Z
TLE epoch observation values (Epoch: 2025-10-05T02:43:05.100Z)
Latitude
Longitude
-177.62017°
Altitude
1,470.363 km
Speed
7.166 km/s
True Right ascension
15h 48m 44s
True Declination
0° 00' 00"
Sunlit
Object was in daylight at epoch
Visualization orbit readout
Latitude
Unknown
Longitude
Unknown
Altitude
Unknown
Speed
Unknown
Apparent Right ascension
Unknown
Apparent Declination
Unknown
Sunlit
N/A
Visualization observer readout
Local Sidereal Time
02:52:17
Azimuth
Unknown
Elevation
Unknown
Doppler factor
Unknown
Orbital elements
Apogee altitude
1,650.821 km
Perigee altitude
1,450.025 km
Semi-major axis
7,928.56 km
Eccentricity
0.01266
Inclination
101.468°
RAAN
237.1866°
Arg. of periapsis
327.5853°
True anomaly
32.5214°
Mean anomaly
31.7475°
Eccentric anomaly
32.1334°
Mean motion
3.07434 °/min
Orbital period
117.1 mins
BSTAR
0.00066533
Loading maneuver chart data...
Computing Atmospheric mass density...

Documentation

Showing up to 5 results
|